K6NC Weather Reports


Display with metric or nautical units.
time (UTC)temp
F
wind
direction
speed
MPH
gust
MPH
rain 1hr
in
rain 24hr
in
rain mn
in
humidity
%
barometer
mb
20260507113510 52 0 0.0 3.0 0.00 0.00 0.00 90 1017.9
20260507113030 52 0 0.0 3.0 0.00 0.00 0.00 90 1017.8
20260507112514 52 0 0.0 3.0 0.00 0.00 0.00 89 1017.9
20260507112011 53 0 0.0 2.0 0.00 0.00 0.00 89 1017.9
20260507111528 53 0 0.0 2.0 0.00 0.00 0.00 89 1017.8
20260507111013 53 80 0.0 2.0 0.00 0.00 0.00 89 1017.8
20260507110513 53 0 0.0 0.0 0.00 0.00 0.00 89 1017.8
20260507110031 53 0 0.0 0.0 0.00 0.00 0.00 89 1017.8
20260507105513 53 0 0.0 0.0 0.00 0.00 0.00 89 1017.7
20260507105011 53 0 0.0 0.0 0.00 0.00 0.00 89 1017.7
20260507104530 53 0 0.0 0.0 0.00 0.00 0.00 89 1017.8
20260507104012 53 0 0.0 0.0 0.00 0.00 0.00 89 1017.8
20260507103512 54 0 0.0 0.0 0.00 0.00 0.00 89 1017.8
20260507102515 54 0 0.0 0.0 0.00 0.00 0.00 90 1017.8
20260507102011 54 0 0.0 0.0 0.00 0.00 0.00 89 1017.8
20260507101531 54 0 0.0 0.0 0.00 0.00 0.00 89 1017.8
20260507101012 54 0 0.0 0.0 0.00 0.00 0.00 89 1017.8
20260507100511 54 0 0.0 0.0 0.00 0.00 0.00 89 1017.8
20260507100034 55 0 0.0 1.0 0.00 0.00 0.00 89 1017.7
20260507095512 55 0 0.0 2.0 0.00 0.00 0.00 90 1017.7
20260507095014 55 0 0.0 3.0 0.00 0.00 0.00 90 1017.8
20260507094531 55 263 0.0 3.0 0.00 0.00 0.00 89 1017.7
20260507094010 55 0 0.0 2.0 0.00 0.00 0.00 89 1017.9
20260507093512 55 0 0.0 3.0 0.00 0.00 0.00 89 1017.8
20260507093030 55 205 1.0 3.0 0.00 0.00 0.00 89 1017.9
20260507092518 55 171 0.0 2.0 0.00 0.00 0.00 89 1017.9
20260507092012 55 0 0.0 0.0 0.00 0.00 0.00 89 1017.8
20260507091011 55 0 0.0 3.0 0.00 0.00 0.00 88 1017.9
20260507090514 55 0 0.0 3.0 0.00 0.00 0.00 88 1017.9
20260507090031 56 186 1.0 3.0 0.00 0.00 0.00 88 1017.9
20260507085512 55 166 1.0 3.0 0.00 0.00 0.00 88 1017.9
20260507085012 55 165 0.0 2.0 0.00 0.00 0.00 88 1017.9
20260507084531 55 185 0.0 2.0 0.00 0.00 0.00 88 1018.0
20260507084011 56 192 0.0 2.0 0.00 0.00 0.00 87 1017.9
20260507083515 56 0 0.0 0.0 0.00 0.00 0.00 87 1018.0
20260507083028 56 0 0.0 2.0 0.00 0.00 0.00 88 1018.0
20260507082511 56 0 0.0 2.0 0.00 0.00 0.00 88 1018.0
20260507082013 55 169 0.0 2.0 0.00 0.00 0.00 89 1018.0
20260507081527 55 169 0.0 1.0 0.00 0.00 0.00 89 1018.0
20260507081012 55 0 0.0 1.0 0.00 0.00 0.00 89 1018.0
20260507080511 55 0 0.0 2.0 0.00 0.00 0.00 89 1017.9
20260507080036 55 0 0.0 2.0 0.00 0.00 0.00 89 1017.9
20260507075511 55 0 0.0 1.0 0.00 0.00 0.00 89 1017.8
20260507075014 55 0 0.0 3.0 0.00 0.00 0.00 89 1017.8
20260507074531 55 0 0.0 3.0 0.00 0.00 0.00 89 1017.8
20260507074014 55 98 2.0 3.0 0.00 0.00 0.00 88 1017.7
20260507073512 56 89 1.0 3.0 0.00 0.00 0.00 87 1017.8
20260507073029 56 0 0.0 0.0 0.00 0.00 0.00 87 1017.7
20260507072513 56 0 0.0 0.0 0.00 0.00 0.00 86 1017.7
20260507072017 57 0 0.0 0.0 0.00 0.00 0.00 85 1017.7
20260507071557 57 0 0.0 0.0 0.00 0.00 0.00 84 1017.8
20260507071011 58 0 0.0 3.0 0.00 0.00 0.00 84 1017.9
20260507070514 58 0 0.0 3.0 0.00 0.00 0.00 82 1017.8
20260507070030 59 175 1.0 4.0 0.00 0.00 0.00 83 1017.8
20260507065511 59 219 1.0 4.0 0.00 0.00 0.00 83 1017.8
20260507065010 58 0 0.0 4.0 0.00 0.00 0.00 83 1017.9
20260507064527 59 231 2.0 4.0 0.00 0.00 0.00 83 1017.8
20260507064015 59 219 2.0 5.0 0.00 0.00 0.00 83 1017.8
20260507063510 59 233 3.0 5.0 0.00 0.00 0.00 83 1017.8
20260507063032 59 216 1.0 4.0 0.00 0.00 0.00 83 1017.8
20260507062519 59 225 2.0 5.0 0.00 0.00 0.00 83 1017.8
20260507062014 59 213 2.0 5.0 0.00 0.00 0.00 83 1017.8
20260507061529 59 210 2.0 5.0 0.00 0.00 0.00 84 1017.8
20260507061013 59 0 1.0 5.0 0.00 0.00 0.00 83 1017.8
20260507060512 60 208 3.0 6.0 0.00 0.00 0.00 83 1017.8
20260507060030 60 236 3.0 6.0 0.00 0.00 0.00 83 1017.8
20260507055514 60 213 2.0 5.0 0.00 0.00 0.00 84 1017.8
20260507055014 60 219 2.0 5.0 0.00 0.00 0.00 83 1017.7
20260507054529 60 0 0.0 4.0 0.00 0.00 0.00 83 1017.6
20260507054015 61 242 1.0 4.0 0.00 0.00 0.00 82 1017.7
20260507053512 61 236 2.0 4.0 0.00 0.00 0.00 82 1017.7
20260507053044 61 232 1.0 4.0 0.00 0.00 0.00 82 1017.7
20260507052511 61 223 2.0 4.0 0.00 0.00 0.00 82 1017.6
20260507052010 61 224 2.0 4.0 0.00 0.00 0.00 82 1017.6
20260507051538 61 227 2.0 7.0 0.00 0.00 0.00 81 1017.6
20260507051010 62 217 3.0 7.0 0.00 0.00 0.00 81 1017.5
20260507050514 62 247 3.0 8.0 0.00 0.00 0.00 81 1017.6
20260507050035 62 244 4.0 8.0 0.00 0.00 0.00 81 1017.6
20260507045514 62 241 3.0 8.0 0.00 0.00 0.00 81 1017.6
20260507045014 62 256 4.0 8.0 0.00 0.00 0.00 81 1017.5
20260507044531 62 237 4.0 8.0 0.00 0.00 0.00 81 1017.5
20260507044012 62 247 4.0 7.0 0.00 0.00 0.00 81 1017.4
20260507043512 63 218 3.0 7.0 0.00 0.00 0.00 81 1017.5
20260507043030 63 240 2.0 9.0 0.00 0.00 0.00 80 1017.5
20260507042510 63 258 3.0 10.0 0.00 0.00 0.00 80 1017.4
20260507042012 64 248 5.0 10.0 0.00 0.00 0.00 79 1017.3
20260507041529 64 261 5.0 10.0 0.00 0.00 0.00 79 1017.3
20260507041013 64 253 6.0 10.0 0.00 0.00 0.00 79 1017.2
20260507040514 64 245 5.0 10.0 0.00 0.00 0.00 80 1017.2
20260507040030 64 267 5.0 10.0 0.00 0.00 0.00 80 1017.1
20260507035512 65 255 4.0 8.0 0.00 0.00 0.00 79 1017.1
20260507035012 65 249 4.0 8.0 0.00 0.00 0.00 78 1017.0
20260507034536 66 248 4.0 9.0 0.00 0.00 0.00 78 1017.0
20260507034013 66 253 5.0 11.0 0.00 0.00 0.00 77 1016.9
20260507033513 66 252 7.0 11.0 0.00 0.00 0.00 76 1016.9
20260507033039 66 237 0.0 2.0 0.00 0.00 0.00 76 1016.8
20260507032512 67 227 0.0 3.0 0.00 0.00 0.00 77 1016.8
20260507032016 67 0 1.0 3.0 0.00 0.00 0.00 76 1016.6
20260507031527 67 336 0.0 2.0 0.00 0.00 0.00 74 1016.5
20260507031017 68 0 0.0 2.0 0.00 0.00 0.00 74 1016.5
20260507030513 68 0 0.0 2.0 0.00 0.00 0.00 73 1016.6
20260507030029 69 336 0.0 2.0 0.00 0.00 0.00 71 1016.5
20260507025513 69 0 0.0 0.0 0.00 0.00 0.00 68 1016.5
20260507025015 69 0 0.0 0.0 0.00 0.00 0.00 69 1016.5
20260507024533 70 0 0.0 0.0 0.00 0.00 0.00 68 1016.4
20260507024012 70 0 0.0 0.0 0.00 0.00 0.00 68 1016.4
20260507023513 70 0 0.0 0.0 0.00 0.00 0.00 69 1016.4
20260507023034 70 0 0.0 0.0 0.00 0.00 0.00 70 1016.4
20260507022511 70 0 0.0 0.0 0.00 0.00 0.00 69 1016.3
20260507022010 71 0 0.0 1.0 0.00 0.00 0.00 68 1016.3
20260507021528 71 0 0.0 2.0 0.00 0.00 0.00 67 1016.2
20260507021015 71 0 0.0 2.0 0.00 0.00 0.00 65 1016.3
20260507020512 71 336 0.0 2.0 0.00 0.00 0.00 64 1016.3
20260507020030 71 0 0.0 2.0 0.00 0.00 0.00 66 1016.4
20260507015512 71 0 0.0 2.0 0.00 0.00 0.00 67 1016.3
20260507015021 71 333 0.0 3.0 0.00 0.00 0.00 65 1016.4
20260507014529 72 328 0.0 3.0 0.00 0.00 0.00 64 1016.3
20260507014011 72 346 1.0 3.0 0.00 0.00 0.00 64 1016.3
20260507013511 72 44 1.0 3.0 0.00 0.00 0.00 61 1016.4
20260507013028 72 0 1.0 5.0 0.00 0.00 0.00 64 1016.4
20260507012514 72 0 0.0 5.0 0.00 0.00 0.00 64 1016.4
20260507012015 72 71 2.0 5.0 0.00 0.00 0.00 64 1016.3
20260507011537 72 43 2.0 4.0 0.00 0.00 0.00 64 1016.4
20260507011012 72 18 1.0 5.0 0.00 0.00 0.00 63 1016.4
20260507010512 72 323 2.0 5.0 0.00 0.00 0.00 66 1016.5
20260507010030 72 312 2.0 4.0 0.00 0.00 0.00 65 1016.4
20260507005513 72 19 2.0 4.0 0.00 0.00 0.00 63 1016.5
20260507005013 72 71 0.0 4.0 0.00 0.00 0.00 63 1016.4
20260507004536 73 352 1.0 4.0 0.00 0.00 0.00 64 1016.4
20260507004013 73 0 1.0 6.0 0.00 0.00 0.00 59 1016.3
20260507003512 73 0 2.0 6.0 0.00 0.00 0.00 60 1016.4
20260507003028 73 295 2.0 5.0 0.00 0.00 0.00 61 1016.4
20260507002512 73 348 1.0 4.0 0.00 0.00 0.00 62 1016.3
20260507002017 74 334 2.0 5.0 0.00 0.00 0.00 59 1016.4
20260507001530 74 286 1.0 8.0 0.00 0.00 0.00 60 1016.4
20260507001012 73 324 3.0 8.0 0.00 0.00 0.00 62 1016.4
20260507000512 73 68 1.0 6.0 0.00 0.00 0.00 60 1016.4
20260507000030 74 338 1.0 6.0 0.00 0.00 0.00 59 1016.4
20260506235514 74 51 3.0 6.0 0.00 0.00 0.00 59 1016.5
20260506235013 74 18 2.0 6.0 0.00 0.00 0.00 60 1016.5
20260506234528 74 336 0.0 6.0 0.00 0.00 0.00 60 1016.6
20260506234011 74 76 1.0 6.0 0.00 0.00 0.00 59 1016.6
20260506233514 74 0 0.0 6.0 0.00 0.00 0.00 60 1016.6
20260506233030 73 313 2.0 8.0 0.00 0.00 0.00 61 1016.7
20260506232511 73 38 2.0 8.0 0.00 0.00 0.00 60 1016.7
20260506232013 73 30 2.0 8.0 0.00 0.00 0.00 62 1016.8
20260506231528 74 22 0.0 4.0 0.00 0.00 0.00 59 1016.7
20260506231013 74 0 1.0 4.0 0.00 0.00 0.00 60 1016.7
20260506230512 73 350 0.0 8.0 0.00 0.00 0.00 59 1017.0
20260506230028 72 36 2.0 8.0 0.00 0.00 0.00 62 1017.1
20260506225513 73 335 3.0 10.0 0.00 0.00 0.00 60 1017.2
20260506225015 73 332 2.0 10.0 0.00 0.00 0.00 63 1017.3
20260506224530 73 67 4.0 10.0 0.00 0.00 0.00 62 1017.3
20260506224014 73 0 1.0 9.0 0.00 0.00 0.00 62 1017.4
20260506223515 72 65 4.0 10.0 0.00 0.00 0.00 64 1017.5
20260506223029 73 34 1.0 10.0 0.00 0.00 0.00 62 1017.5
20260506222512 73 82 2.0 6.0 0.00 0.00 0.00 58 1017.6
20260506222013 74 235 1.0 6.0 0.00 0.00 0.00 57 1017.7
20260506221529 72 113 3.0 8.0 0.00 0.00 0.00 59 1017.8
20260506221014 71 0 2.0 8.0 0.00 0.00 0.00 60 1017.9
20260506220514 72 355 1.0 9.0 0.00 0.00 0.00 62 1017.9
20260506220037 73 236 5.0 10.0 0.00 0.00 0.00 58 1017.9
20260506215512 74 261 1.0 10.0 0.00 0.00 0.00 60 1018.0
20260506215012 72 298 5.0 10.0 0.00 0.00 0.00 63 1018.0
20260506214528 71 276 0.0 6.0 0.00 0.00 0.00 60 1018.0
20260506214012 71 28 2.0 8.0 0.00 0.00 0.00 64 1018.2
20260506213511 72 351 2.0 8.0 0.00 0.00 0.00 63 1018.1
20260506213032 72 0 1.0 9.0 0.00 0.00 0.00 61 1018.3
20260506212514 71 24 3.0 9.0 0.00 0.00 0.00 62 1018.3
20260506212012 71 322 3.0 8.0 0.00 0.00 0.00 66 1018.4
20260506211532 70 323 1.0 8.0 0.00 0.00 0.00 65 1018.4
20260506211012 69 332 3.0 6.0 0.00 0.00 0.00 64 1018.5
20260506210513 70 24 2.0 8.0 0.00 0.00 0.00 64 1018.6
20260506210032 70 355 3.0 8.0 0.00 0.00 0.00 65 1018.6
20260506205513 70 355 3.0 9.0 0.00 0.00 0.00 63 1018.6
20260506205011 72 71 2.0 9.0 0.00 0.00 0.00 61 1018.7
20260506204529 74 0 1.0 9.0 0.00 0.00 0.00 58 1018.8
20260506204017 73 327 5.0 9.0 0.00 0.00 0.00 62 1018.8
20260506203512 71 317 3.0 9.0 0.00 0.00 0.00 63 1019.0
20260506203029 70 24 3.0 9.0 0.00 0.00 0.00 66 1019.1
20260506202513 70 30 3.0 9.0 0.00 0.00 0.00 62 1019.2
20260506202017 72 294 2.0 8.0 0.00 0.00 0.00 63 1019.2
20260506201530 72 317 3.0 8.0 0.00 0.00 0.00 65 1019.3
20260506201013 70 92 3.0 7.0 0.00 0.00 0.00 66 1019.3
20260506200512 69 355 1.0 8.0 0.00 0.00 0.00 69 1019.3
20260506200027 68 18 2.0 11.0 0.00 0.00 0.00 66 1019.4
20260506195512 70 9 3.0 11.0 0.00 0.00 0.00 66 1019.4
20260506195011 69 337 2.0 8.0 0.00 0.00 0.00 70 1019.4
20260506194530 68 319 3.0 8.0 0.00 0.00 0.00 65 1019.5
20260506194013 69 268 2.0 8.0 0.00 0.00 0.00 66 1019.5
20260506193513 69 302 2.0 7.0 0.00 0.00 0.00 70 1019.6
20260506193030 67 336 1.0 6.0 0.00 0.00 0.00 70 1019.7
20260506192513 68 53 2.0 6.0 0.00 0.00 0.00 66 1019.7
20260506192013 69 341 3.0 6.0 0.00 0.00 0.00 68 1019.7
20260506191528 68 278 4.0 7.0 0.00 0.00 0.00 70 1019.7
20260506191014 68 16 1.0 7.0 0.00 0.00 0.00 68 1019.9
20260506190517 69 360 2.0 7.0 0.00 0.00 0.00 67 1019.9
20260506190028 69 43 2.0 7.0 0.00 0.00 0.00 67 1019.8
20260506185512 68 337 2.0 5.0 0.00 0.00 0.00 68 1019.9
20260506185013 69 302 2.0 7.0 0.00 0.00 0.00 69 1019.8
20260506184529 68 291 2.0 7.0 0.00 0.00 0.00 68 1019.8
20260506184020 68 310 3.0 7.0 0.00 0.00 0.00 74 1020.0
20260506183514 68 82 2.0 7.0 0.00 0.00 0.00 70 1020.0
20260506183028 67 15 2.0 7.0 0.00 0.00 0.00 71 1020.1
20260506182513 68 285 4.0 7.0 0.00 0.00 0.00 70 1020.1
20260506182014 67 279 3.0 7.0 0.00 0.00 0.00 75 1020.2
20260506181530 67 317 2.0 7.0 0.00 0.00 0.00 75 1020.2
20260506181013 66 246 2.0 7.0 0.00 0.00 0.00 72 1020.1
20260506180513 66 0 1.0 6.0 0.00 0.00 0.00 72 1020.2
20260506180030 65 287 2.0 6.0 0.00 0.00 0.00 77 1020.2
20260506175515 65 25 2.0 6.0 0.00 0.00 0.00 74 1020.1
20260506175017 64 315 1.0 6.0 0.00 0.00 0.00 76 1020.2
20260506174527 64 0 1.0 4.0 0.00 0.00 0.00 77 1020.3
20260506174012 64 288 3.0 4.0 0.00 0.00 0.00 78 1020.2
20260506173514 64 0 0.0 4.0 0.00 0.00 0.00 74 1020.2
20260506173033 64 292 1.0 5.0 0.00 0.00 0.00 77 1020.3
20260506172512 64 248 1.0 7.0 0.00 0.00 0.00 78 1020.2
20260506172013 63 294 3.0 7.0 0.00 0.00 0.00 79 1020.2
20260506171530 63 231 4.0 7.0 0.00 0.00 0.00 80 1020.2
20260506171012 62 279 2.0 4.0 0.00 0.00 0.00 79 1020.2
20260506170512 62 0 1.0 4.0 0.00 0.00 0.00 79 1020.2
20260506170028 62 300 1.0 4.0 0.00 0.00 0.00 77 1020.3
20260506165514 62 285 2.0 6.0 0.00 0.00 0.00 79 1020.3
20260506165014 61 0 2.0 7.0 0.00 0.00 0.00 79 1020.3
20260506164528 61 276 3.0 7.0 0.00 0.00 0.00 79 1020.3
20260506164011 61 275 2.0 4.0 0.00 0.00 0.00 80 1020.3
20260506163511 61 254 1.0 5.0 0.00 0.00 0.00 80 1020.2
20260506163032 60 273 3.0 5.0 0.00 0.00 0.00 81 1020.2
20260506162513 60 190 3.0 5.0 0.00 0.00 0.00 81 1020.2
20260506162016 60 223 1.0 4.0 0.00 0.00 0.00 83 1020.2
20260506161534 60 216 1.0 4.0 0.00 0.00 0.00 81 1020.2
20260506161013 59 211 2.0 4.0 0.00 0.00 0.00 81 1020.2
20260506160517 59 241 2.0 4.0 0.00 0.00 0.00 81 1020.2
20260506160031 59 273 2.0 4.0 0.00 0.00 0.00 81 1020.3
20260506155514 59 254 2.0 4.0 0.00 0.00 0.00 81 1020.2
20260506155012 59 246 3.0 4.0 0.00 0.00 0.00 81 1020.1
20260506154532 59 240 1.0 4.0 0.00 0.00 0.00 82 1020.2
20260506154013 59 267 2.0 4.0 0.00 0.00 0.00 82 1020.2
20260506153511 58 277 2.0 6.0 0.00 0.00 0.00 82 1020.1
20260506153028 58 252 3.0 6.0 0.00 0.00 0.00 82 1020.2
20260506152512 58 210 3.0 5.0 0.00 0.00 0.00 82 1020.1
20260506152013 58 226 3.0 5.0 0.00 0.00 0.00 83 1020.1
20260506151530 58 180 2.0 5.0 0.00 0.00 0.00 83 1020.1
20260506151015 58 215 2.0 5.0 0.00 0.00 0.00 83 1020.1
20260506150512 58 219 2.0 5.0 0.00 0.00 0.00 84 1020.1
20260506150029 58 202 2.0 5.0 0.00 0.00 0.00 84 1020.1
20260506145510 58 217 2.0 4.0 0.00 0.00 0.00 85 1020.0
20260506145013 57 214 1.0 3.0 0.00 0.00 0.00 85 1020.0
20260506144529 57 190 1.0 3.0 0.00 0.00 0.00 85 1020.1
20260506144012 57 180 1.0 3.0 0.00 0.00 0.00 85 1020.1
20260506143513 57 188 1.0 3.0 0.00 0.00 0.00 85 1020.0
20260506143030 57 178 2.0 3.0 0.00 0.00 0.00 86 1019.9
20260506142513 56 0 0.0 3.0 0.00 0.00 0.00 86 1019.9
20260506142010 56 184 2.0 3.0 0.00 0.00 0.00 86 1019.9
20260506141534 56 0 0.0 4.0 0.00 0.00 0.00 87 1019.8
20260506141012 56 0 0.0 4.0 0.00 0.00 0.00 87 1019.8
20260506140513 56 171 0.0 3.0 0.00 0.00 0.00 87 1019.8
20260506140028 56 0 0.0 0.0 0.00 0.00 0.00 87 1019.7
20260506135512 56 0 0.0 0.0 0.00 0.00 0.00 87 1019.6
20260506135017 56 0 0.0 0.0 0.00 0.00 0.00 87 1019.6
20260506134527 56 0 0.0 1.0 0.00 0.00 0.00 87 1019.5
20260506134012 56 0 0.0 1.0 0.00 0.00 0.00 87 1019.6
20260506133512 56 0 0.0 1.0 0.00 0.00 0.00 87 1019.5
20260506133030 56 0 0.0 0.0 0.00 0.00 0.00 87 1019.5
20260506132514 56 0 0.0 0.0 0.00 0.00 0.00 87 1019.6
20260506132013 56 0 0.0 0.0 0.00 0.00 0.00 86 1019.5
20260506131528 56 0 0.0 0.0 0.00 0.00 0.00 86 1019.4
20260506131013 56 0 0.0 1.0 0.00 0.00 0.00 86 1019.5
20260506130514 56 0 0.0 1.0 0.00 0.00 0.00 86 1019.5
20260506130028 56 0 0.0 1.0 0.00 0.00 0.00 86 1019.4
20260506125513 56 0 0.0 2.0 0.00 0.00 0.00 86 1019.3
20260506125012 56 0 0.0 3.0 0.00 0.00 0.00 86 1019.3
20260506124529 56 191 0.0 4.0 0.00 0.00 0.00 86 1019.3
20260506124013 56 191 1.0 4.0 0.00 0.00 0.00 86 1019.3
20260506123515 56 191 1.0 3.0 0.00 0.00 0.00 86 1019.2
20260506123029 56 0 0.0 0.0 0.00 0.00 0.00 86 1019.2
20260506122513 56 0 0.0 0.0 0.00 0.00 0.00 85 1019.2
20260506122018 56 0 0.0 1.0 0.00 0.00 0.00 85 1019.2
20260506121529 56 0 0.0 1.0 0.00 0.00 0.00 85 1019.2
20260506121014 56 0 0.0 1.0 0.00 0.00 0.00 85 1019.1
20260506120511 56 0 0.0 1.0 0.00 0.00 0.00 85 1019.1
20260506120031 56 0 0.0 0.0 0.00 0.00 0.00 85 1019.1
20260506115516 56 0 0.0 3.0 0.00 0.00 0.00 85 1019.1
20260506115016 56 0 0.0 4.0 0.00 0.00 0.00 85 1019.1
20260506114528 56 161 0.0 4.0 0.00 0.00 0.00 85 1019.0
20260506114013 56 0 0.0 3.0 0.00 0.00 0.00 85 1019.0